This is the latest recevied weather packets stored in our database for station/object K5OBH. If no packets are shown the sender has not sent any weather packets the latest 10 day(s).
| Time | Temp. | Humidity | Pressure | Rain* | Wind** | Luminosity | Snow |
|---|---|---|---|---|---|---|---|
| 1777919954 | 26.11° C | 52% | 1005.5 hPa | 0 mm | - | 664 W/m² | - |
| 1777919651 | 25.56° C | 52% | 1005.6 hPa | 0 mm | - | 693 W/m² | - |
| 1777919349 | 25° C | 54% | 1005.6 hPa | 0 mm | - | 612 W/m² | - |
| 1777919046 | 25° C | 53% | 1005.8 hPa | 0 mm | - | 575 W/m² | - |
| 1777918742 | 25° C | 53% | 1005.9 hPa | 0 mm | - | 618 W/m² | - |
| 1777918440 | 25° C | 53% | 1006.2 hPa | 0 mm | - | 598 W/m² | - |
| 1777918138 | 25° C | 53% | 1006 hPa | 0 mm | - | 559 W/m² | - |
| 1777917836 | 25° C | 53% | 1006.4 hPa | 0 mm | - | 595 W/m² | - |
| 1777917535 | 25° C | 53% | 1006 hPa | 0 mm | - | 556 W/m² | - |
| 1777916626 | 24.44° C | 55% | 1006.4 hPa | 0 mm | - | 640 W/m² | - |
| 1777916323 | 24.44° C | 55% | 1006.3 hPa | 0 mm | - | 555 W/m² | - |
| 1777916020 | 23.89° C | 55% | 1006.6 hPa | 0 mm | - | 627 W/m² | - |
| 1777915717 | 23.89° C | 55% | 1006.6 hPa | 0 mm | - | 632 W/m² | - |
| 1777915413 | 23.89° C | 56% | 1006.8 hPa | 0 mm | - | 630 W/m² | - |
| 1777915109 | 24.44° C | 55% | 1006.8 hPa | 0 mm | - | 658 W/m² | - |
| 1777914807 | 23.89° C | 55% | 1006.7 hPa | 0 mm | - | 628 W/m² | - |
| 1777914504 | 23.89° C | 54% | 1006.6 hPa | 0 mm | - | 652 W/m² | - |
| 1777914201 | 23.89° C | 55% | 1006.8 hPa | 0 mm | - | 681 W/m² | - |
| 1777913897 | 23.89° C | 54% | 1006.7 hPa | 0 mm | - | 657 W/m² | - |
| 1777913594 | 23.89° C | 55% | 1006.8 hPa | 0 mm | - | 642 W/m² | - |
| 1777913290 | 23.33° C | 56% | 1006.8 hPa | 0 mm | - | 635 W/m² | - |
| 1777912683 | 23.33° C | 56% | 1006.9 hPa | 0 mm | - | 619 W/m² | - |
| 1777912379 | 22.78° C | 55% | 1007 hPa | 0 mm | - | 581 W/m² | - |
| 1777912075 | 22.78° C | 55% | 1006.9 hPa | 0 mm | - | 599 W/m² | - |
| 1777911468 | 22.78° C | 55% | 1007.2 hPa | 0 mm | - | 546 W/m² | - |
* Rain latest hour (hover to see other rain measurements)
** Current wind speed in m/s (hover to see current wind gust speed)